Orbital elements: 2009 HF60 Earth MOID = 0.3479 AU Epoch 2009 June 18.0 TT = JDT 2455000.5 MPC M 327.54613 (2000.0) P Q n 0.38433304 Peri. 248.28262 +0.60045057 +0.65909107 a 1.8735455 Node 67.03772 -0.42038465 +0.74188702 e 0.3656953 Incl. 29.45915 -0.68024691 +0.12329890 P 2.56 H 18.3 G 0.15 U 9